Regional Weather Roundup
Issued by NWS

Home | Current Version | Previous Version | Graphics & Text | Print | Product List | Glossary Off
Versions: 1 2 3 4 5 6 7 8 9 10 11 12 13 14 15 16 17 18 19 20 21 22 23 24 25 26 27 28 29 30 31 32 33 34 35 36 37 38 39 40 41 42 43 44 45 46 47 48 49 50

000
ASUS43 KMKX 300059
RWRWI

WISCONSIN REGIONAL WEATHER ROUNDUP
NATIONAL WEATHER SERVICE MILWAUKEE/SULLIVAN WI
700 PM CST THU JAN 29 2015

NOTE: "FAIR" INDICATES FEW OR NO CLOUDS BELOW 12,000 FEET WITH NO
SIGNIFICANT WEATHER AND/OR OBSTRUCTIONS TO VISIBILITY.

WIZ001-002-006>008-014>016-023>028-300200-
NORTHWEST WISCONSIN

CITY           SKY/WX    TMP DP  RH WIND       PRES   REMARKS
SUPERIOR ARPT  MOCLDY    14   4  63 N15G21    30.46R WCI  -1
ASHLAND        MOCLDY    18   6  59 NW18G24   30.39R WCI   2
HAYWARD        CLOUDY    16   5  62 N13G22    30.38R WCI   2
SIREN          PTCLDY    17   7  66 N8G16     30.42R WCI   6
CUMBERLAND     CLOUDY    19   9  63 NW15G26   30.35R WCI   5
RICE LAKE      CLOUDY    20  10  64 NW16G26   30.37R WCI   6
CHETEK         CLOUDY    20  10  65 NW13G23   30.35R WCI   8
LADYSMITH      CLOUDY    21  11  65 N18G24    30.32R WCI   6
EAU CLAIRE     CLOUDY    23  12  62 NW13G23   30.36R WCI  11
MENOMONIE      PTCLDY    23  11  61 NW17      30.37R WCI   9
NEW RICHMOND   MOCLDY    19  11  70 NW14      30.41R WCI   6
OSCEOLA        CLOUDY    20  11  68 NW14      30.45R WCI   6
$$

WIZ003>005-009-010-017-018-300200-
NORTH CENTRAL WISCONSIN

CITY           SKY/WX    TMP DP  RH WIND       PRES   REMARKS
MANITOWISH WTR FLURRIES  17  10  75 NW18      30.23R WCI   1
ARBOR VITAE    LGT SNOW  19  13  76 N13G24    30.22R WCI   7
WOODRUFF       LGT SNOW  19  13  76 N13G24    30.22R WCI   7
RHINELANDER    CLOUDY    19  10  68 NW13G22   30.21R WCI   6
EAGLE RIVER    FLURRIES  19  11  73 N15G21    30.18R WCI   4
LAND O LAKES   LGT SNOW  18  14  84 NW10G17   30.20R WCI   7
PHILLIPS       CLOUDY    19  12  73 NW14G21   30.25R WCI   6
TOMAHAWK       LGT SNOW  20  14  77 NW12G17   30.23R WCI   8
MEDFORD        FLURRIES  21  12  68 N18G26    30.23R WCI   7
MERRILL        CLOUDY    23  13  64 N10G18    30.22R WCI  12
$$

WIZ029-030-035-036-043>047-300200-
CENTRAL WISCONSIN

CITY           SKY/WX    TMP DP  RH WIND       PRES   REMARKS
WAUSAU         CLOUDY    24  12  60 N14G25    30.22R WCI  12
MOSINEE        CLOUDY    25  14  63 NW18G26   30.23R WCI  11
MARSHFIELD     CLOUDY    25  13  60 NW18      30.25R WCI  11
STEVENS POINT  CLOUDY    26  14  60 N13G20    30.21R WCI  15
WAUPACA        CLOUDY    31  17  54 NW17G26   30.20R WCI  20
WAUTOMA        NOT AVBL
WISC RAPIDS    CLOUDY    27  15  61 NW15G24   30.26R WCI  15
CAMP DOUGLAS   MIX PCPN  28  21  74 NW15G23   30.25R WCI  17
$$

WIZ011>013-019>022-031-037>040-048>050-300200-
NORTHEAST WISCONSIN

CITY           SKY/WX    TMP DP  RH WIND       PRES   REMARKS
ANTIGO         CLOUDY    19  12  73 N15G22    30.19R WCI   5
SHAWANO        FLURRIES  28  14  56 N15G28    30.22R WCI  16
OCONTO         CLOUDY    26  14  62 MISG      30.20R
STURGEON BAY   PTCLDY    21  10  63 N17G25    30.21R WCI   7
GREEN BAY      LGT SNOW  27  17  66 N20G25    30.21R WCI  13
MANITOWOC      NOT AVBL
APPLETON       CLOUDY    27  16  63 N20G35    30.19R WCI  13
CLINTONVILLE   CLOUDY    28  12  50 N15G25    30.21R WCI  17
OSHKOSH        FLURRIES  29  19  66 N15G24    30.19R WCI  18
$$

WIZ032>034-041-042-053>061-300200-
SOUTHWEST WISCONSIN

CITY           SKY/WX    TMP DP  RH WIND       PRES   REMARKS
LA CROSSE      CLOUDY    29  16  58 NW17G30   30.33R WCI  17
SPARTA         CLOUDY    29  17  62 NW13G21   30.30R WCI  18
VIROQUA        CLOUDY    27  18  71 NW18G25   30.26R WCI  13
BOSCOBEL       CLOUDY    32  20  61 NW10G21   30.30R WCI  24
PRAIRIE DU CHI CLOUDY    31  19  62 NW14G26   30.30R WCI  21
PLATTEVILLE    CLOUDY    32  24  72 W17G24    30.24R WCI  21
$$

WIZ056-057-062-063-064-067-068-300200-
SOUTH CENTRAL WISCONSIN

CITY           SKY/WX    TMP DP  RH WIND       PRES   REMARKS
REEDSBURG      CLOUDY    30  20  64 NW16      30.23R WCI  19
BARABOO/DELLS  CLOUDY    31  18  59 NW18      30.21R WCI  19
LONE ROCK      NOT AVBL
MINERAL POINT  CLOUDY    34  21  60 NW15G24   30.21R WCI  24
MADISON        CLOUDY    32  19  58 NW10G18   30.21R WCI  24
MIDDLETON      CLOUDY    33  21  60 NW18      30.21R WCI  22
WATERTOWN      CLOUDY    32  20  60 N15G22    30.17R WCI  22
MONROE         CLOUDY    32  23  69 NW17G24   30.19R WCI  21
JANESVILLE     NOT AVBL
$$

WIZ051-052-058>065-066-070>072-300200-
SOUTHEAST WISCONSIN

CITY           SKY/WX    TMP DP  RH WIND       PRES   REMARKS
MILWAUKEE      CLOUDY    35  18  49 NW16G22   30.16R WCI  25
WAUKESHA       CLOUDY    32  19  59 NW15      30.16R WCI  22
MILWAUKEE/TIMM CLOUDY    34  18  51 N14       30.16R WCI  24
RACINE         CLOUDY    35  19  52 NW15G24   30.17R WCI  25
BURLINGTON     CLOUDY    32  20  60 NW13      30.17R WCI  22
KENOSHA        CLOUDY    34  21  59 NW12G23   30.16R WCI  25
FOND DU LAC    CLOUDY    30  18  60 N20G29    30.19R WCI  17
SHEBOYGAN      CLOUDY    30  18  60 N18G25    30.16R WCI  18
WEST BEND      CLOUDY    32  18  55 N10G18    30.15R WCI  24
JUNEAU         CLOUDY    32  19  58 NW15G24   30.17R WCI  21
$$

LSZ147-162-300200-
LAKE SUPERIOR

STATION/POSITION TIME  TEMP    WIND        PRES    WAVE
                       AIR SEA DIR/SP/G            HT/PER
                 (UTC) (F)     (DEG/KT/KT) (MB)    (FT/S)
DEVILS ISLAND    0000   19     340/ 23/ 28 1029.0R
PORT WING        0020   20     310/ 24     1029.5R
SAXON HARBOR     0002   23     330/ 21/ 25 1026.4R
$$

LMZ867-665-643>646-300200-
LAKE MICHIGAN

STATION/POSITION TIME  TEMP    WIND        PRES    WAVE
                       AIR SEA DIR/SP/G            HT/PER
                 (UTC) (F)     (DEG/KT/KT) (MB)    (FT/S)
NORTHPORT PIER   0004   22     340/ 26     1021.0R
SISTER BAY       2313   25     340/ 32/ 38   N/A
KEWAUNEE LAKESHO 0000   29     340/ 17/ 25 1019.2R
SHEBOYGAN LAKESH 0000   33     340/ 16/ 19 1021.0R
PORT WASHINGTON  0040   34     340/  7/ 15 1021.7R
MILWAUKEE LAKESH 0000   35     320/ 13/ 18   N/A
KENOSHA   LAKESH 0000   35     320/ 14/ 18 1020.0R
$$

TC  - TEMPERATURE IN CELSIUS
VSB - VISIBILITY IN STATUTE MILES
WCI - WIND CHILL INDEX
HX  - HEAT INDEX




USA.gov is the U.S. government's official web portal to all federal, state and local government web resources and services.